"Time","Value","Approval","myLocation"
"2023-05-07 00:00",3.30347278531524,"Approved","OW485"
"2023-05-07 01:00",3.303473264166,"Approved","OW485"
"2023-05-07 02:00",3.30347374301676,"Approved","OW485"
"2023-05-07 03:00",3.30247422186752,"Approved","OW485"
"2023-05-07 04:00",3.30247470071828,"Approved","OW485"
"2023-05-07 05:00",3.30147517956903,"Approved","OW485"
"2023-05-07 06:00",3.30147565841979,"Approved","OW485"
"2023-05-07 07:00",3.30147613727055,"Approved","OW485"
"2023-05-07 08:00",3.30047661612131,"Approved","OW485"
"2023-05-07 09:00",3.30047709497207,"Approved","OW485"
"2023-05-07 10:00",3.30047757382283,"Approved","OW485"
"2023-05-07 11:00",3.29947805267358,"Approved","OW485"
"2023-05-07 12:00",3.29947853152434,"Approved","OW485"
"2023-05-07 13:00",3.2994790103751,"Approved","OW485"
"2023-05-07 14:00",3.29847948922586,"Approved","OW485"
"2023-05-07 15:00",3.29847996807662,"Approved","OW485"
"2023-05-07 16:00",3.29848044692737,"Approved","OW485"
"2023-05-07 17:00",3.29848092577813,"Approved","OW485"
"2023-05-07 18:00",3.29748140462889,"Approved","OW485"
"2023-05-07 19:00",3.29748188347965,"Approved","OW485"
"2023-05-07 20:00",3.29648236233041,"Approved","OW485"
"2023-05-07 21:00",3.29648284118117,"Approved","OW485"
"2023-05-07 22:00",3.29548332003192,"Approved","OW485"
"2023-05-07 23:00",3.29548379888268,"Approved","OW485"
"2023-05-08 00:00",3.29448427773344,"Approved","OW485"
"2023-05-08 01:00",3.2944847565842,"Approved","OW485"
"2023-05-08 02:00",3.29348523543496,"Approved","OW485"
"2023-05-08 03:00",3.29248571428571,"Approved","OW485"
"2023-05-08 04:00",3.29248619313647,"Approved","OW485"
"2023-05-08 05:00",3.29248667198723,"Approved","OW485"
"2023-05-08 06:00",3.29148715083799,"Approved","OW485"
"2023-05-08 07:00",3.29148762968875,"Approved","OW485"
"2023-05-08 08:00",3.2904881085395,"Approved","OW485"
"2023-05-08 09:00",3.29048858739026,"Approved","OW485"
"2023-05-08 10:00",3.29048906624102,"Approved","OW485"
"2023-05-08 11:00",3.28948954509178,"Approved","OW485"
"2023-05-08 12:00",3.28849002394254,"Approved","OW485"
"2023-05-08 13:00",3.2884905027933,"Approved","OW485"
"2023-05-08 14:00",3.28849098164405,"Approved","OW485"
"2023-05-08 15:00",3.28749146049481,"Approved","OW485"
"2023-05-08 16:00",3.28749193934557,"Approved","OW485"
"2023-05-08 17:00",3.28749241819633,"Approved","OW485"
"2023-05-08 18:00",3.28649289704709,"Approved","OW485"
"2023-05-08 19:00",3.28549337589785,"Approved","OW485"
"2023-05-08 20:00",3.2844938547486,"Approved","OW485"
"2023-05-08 21:00",3.28449433359936,"Approved","OW485"
"2023-05-08 22:00",3.28449481245012,"Approved","OW485"
"2023-05-08 23:00",3.28449529130088,"Approved","OW485"
"2023-05-09 00:00",3.28349577015164,"Approved","OW485"
"2023-05-09 01:00",3.28249624900239,"Approved","OW485"
"2023-05-09 02:00",3.28249672785315,"Approved","OW485"
"2023-05-09 03:00",3.28149720670391,"Approved","OW485"
"2023-05-09 04:00",3.28149768555467,"Approved","OW485"
"2023-05-09 05:00",3.28149816440543,"Approved","OW485"
"2023-05-09 06:00",3.28049864325619,"Approved","OW485"
"2023-05-09 07:00",3.28049912210694,"Approved","OW485"
"2023-05-09 08:00",3.2794996009577,"Approved","OW485"
"2023-05-09 09:00",3.27950007980846,"Approved","OW485"
"2023-05-09 10:00",3.27950055865922,"Approved","OW485"
"2023-05-09 11:00",3.27850103750998,"Approved","OW485"
"2023-05-09 12:00",3.27850151636073,"Approved","OW485"
"2023-05-09 13:00",3.27750199521149,"Approved","OW485"
"2023-05-09 14:00",3.27750247406225,"Approved","OW485"
"2023-05-09 15:00",3.27750295291301,"Approved","OW485"
"2023-05-09 16:00",3.27650343176377,"Approved","OW485"
"2023-05-09 17:00",3.27550391061453,"Approved","OW485"
"2023-05-09 18:00",3.27550438946528,"Approved","OW485"
"2023-05-09 19:00",3.27450486831604,"Approved","OW485"
"2023-05-09 20:00",3.2745053471668,"Approved","OW485"
"2023-05-09 21:00",3.27350582601756,"Approved","OW485"
"2023-05-09 22:00",3.27250630486832,"Approved","OW485"
"2023-05-09 23:00",3.27150678371907,"Approved","OW485"
"2023-05-10 00:00",3.27150726256983,"Approved","OW485"
"2023-05-10 01:00",3.27150774142059,"Approved","OW485"
"2023-05-10 02:00",3.27050822027135,"Approved","OW485"
"2023-05-10 03:00",3.26850869912211,"Approved","OW485"
"2023-05-10 04:00",3.26950917797287,"Approved","OW485"
"2023-05-10 05:00",3.26850965682362,"Approved","OW485"
"2023-05-10 06:00",3.26751013567438,"Approved","OW485"
"2023-05-10 07:00",3.26751061452514,"Approved","OW485"
"2023-05-10 08:00",3.2665110933759,"Approved","OW485"
"2023-05-10 09:00",3.26651157222666,"Approved","OW485"
"2023-05-10 10:00",3.26551205107741,"Approved","OW485"
"2023-05-10 11:00",3.26551252992817,"Approved","OW485"
"2023-05-10 12:00",3.26451300877893,"Approved","OW485"
"2023-05-10 13:00",3.26351348762969,"Approved","OW485"
"2023-05-10 14:00",3.26351396648045,"Approved","OW485"
"2023-05-10 15:00",3.2625144453312,"Approved","OW485"
"2023-05-10 16:00",3.26151492418196,"Approved","OW485"
"2023-05-10 17:00",3.26151540303272,"Approved","OW485"
"2023-05-10 18:00",3.26051588188348,"Approved","OW485"
"2023-05-10 19:00",3.25951636073424,"Approved","OW485"
"2023-05-10 20:00",3.258516839585,"Approved","OW485"
"2023-05-10 21:00",3.25851731843575,"Approved","OW485"
"2023-05-10 22:00",3.25751779728651,"Approved","OW485"
"2023-05-10 23:00",3.25751827613727,"Approved","OW485"
"2023-05-11 00:00",3.25651875498803,"Approved","OW485"
"2023-05-11 01:00",3.25551923383879,"Approved","OW485"
"2023-05-11 02:00",3.25551971268955,"Approved","OW485"
"2023-05-11 03:00",3.2545201915403,"Approved","OW485"
"2023-05-11 04:00",3.25352067039106,"Approved","OW485"
"2023-05-11 05:00",3.25352114924182,"Approved","OW485"
"2023-05-11 06:00",3.25252162809258,"Approved","OW485"
"2023-05-11 07:00",3.25252210694334,"Approved","OW485"
"2023-05-11 08:00",3.25152258579409,"Approved","OW485"
"2023-05-11 09:00",3.25052306464485,"Approved","OW485"
"2023-05-11 10:00",3.24952354349561,"Approved","OW485"
"2023-05-11 11:00",3.24952402234637,"Approved","OW485"
"2023-05-11 12:00",3.24952450119713,"Approved","OW485"
"2023-05-11 13:00",3.24852498004789,"Approved","OW485"
"2023-05-11 14:00",3.24752545889864,"Approved","OW485"
"2023-05-11 15:00",3.2465259377494,"Approved","OW485"
"2023-05-11 16:00",3.24652641660016,"Approved","OW485"
"2023-05-11 17:00",3.24552689545092,"Approved","OW485"
"2023-05-11 18:00",3.24452737430168,"Approved","OW485"
"2023-05-11 19:00",3.24352785315243,"Approved","OW485"
"2023-05-11 20:00",3.24252833200319,"Approved","OW485"
"2023-05-11 21:00",3.24252881085395,"Approved","OW485"
"2023-05-11 22:00",3.24252928970471,"Approved","OW485"
"2023-05-11 23:00",3.24152976855547,"Approved","OW485"
"2023-05-12 00:00",3.24053024740622,"Approved","OW485"
"2023-05-12 01:00",3.23953072625698,"Approved","OW485"
"2023-05-12 02:00",3.23853120510774,"Approved","OW485"
"2023-05-12 03:00",3.2375316839585,"Approved","OW485"
"2023-05-12 04:00",3.23753216280926,"Approved","OW485"
"2023-05-12 05:00",3.23653264166002,"Approved","OW485"
"2023-05-12 06:00",3.23553312051077,"Approved","OW485"
"2023-05-12 07:00",3.23553359936153,"Approved","OW485"
"2023-05-12 08:00",3.23453407821229,"Approved","OW485"
"2023-05-12 09:00",3.23353455706305,"Approved","OW485"
"2023-05-12 10:00",3.23253503591381,"Approved","OW485"
"2023-05-12 11:00",3.23253551476457,"Approved","OW485"
"2023-05-12 12:00",3.23153599361532,"Approved","OW485"
"2023-05-12 13:00",3.23053647246608,"Approved","OW485"
"2023-05-12 14:00",3.23053695131684,"Approved","OW485"
"2023-05-12 15:00",3.2295374301676,"Approved","OW485"
"2023-05-12 16:00",3.22853790901836,"Approved","OW485"
"2023-05-12 17:00",3.22753838786911,"Approved","OW485"
"2023-05-12 18:00",3.22753886671987,"Approved","OW485"
"2023-05-12 19:00",3.22753934557063,"Approved","OW485"
"2023-05-12 20:00",3.22653982442139,"Approved","OW485"
"2023-05-12 21:00",3.22554030327215,"Approved","OW485"
"2023-05-12 22:00",3.2245407821229,"Approved","OW485"
"2023-05-12 23:00",3.22454126097366,"Approved","OW485"
"2023-05-13 00:00",3.22354173982442,"Approved","OW485"
"2023-05-13 01:00",3.22254221867518,"Approved","OW485"
"2023-05-13 02:00",3.22654269752594,"Approved","OW485"
"2023-05-13 03:00",3.2255431763767,"Approved","OW485"
"2023-05-13 04:00",3.22154365522745,"Approved","OW485"
"2023-05-13 05:00",3.22054413407821,"Approved","OW485"
"2023-05-13 06:00",3.21954461292897,"Approved","OW485"
"2023-05-13 07:00",3.21854509177973,"Approved","OW485"
"2023-05-13 08:00",3.21654557063049,"Approved","OW485"
"2023-05-13 09:00",3.21654604948125,"Approved","OW485"
"2023-05-13 10:00",3.215546528332,"Approved","OW485"
"2023-05-13 11:00",3.21454700718276,"Approved","OW485"
"2023-05-13 12:00",3.21454748603352,"Approved","OW485"
"2023-05-13 13:00",3.21354796488428,"Approved","OW485"
"2023-05-13 14:00",3.21254844373504,"Approved","OW485"
"2023-05-13 15:00",3.21154892258579,"Approved","OW485"
"2023-05-13 16:00",3.21154940143655,"Approved","OW485"
"2023-05-13 17:00",3.20954988028731,"Approved","OW485"
"2023-05-13 18:00",3.20955035913807,"Approved","OW485"
"2023-05-13 19:00",3.20855083798883,"Approved","OW485"
"2023-05-13 20:00",3.20855131683959,"Approved","OW485"
"2023-05-13 21:00",3.20655179569034,"Approved","OW485"
"2023-05-13 22:00",3.2065522745411,"Approved","OW485"
"2023-05-13 23:00",3.20555275339186,"Approved","OW485"
"2023-05-14 00:00",3.20355323224262,"Approved","OW485"
"2023-05-14 01:00",3.20355371109338,"Approved","OW485"
"2023-05-14 02:00",3.20355418994413,"Approved","OW485"
"2023-05-14 03:00",3.20255466879489,"Approved","OW485"
"2023-05-14 04:00",3.20255514764565,"Approved","OW485"
"2023-05-14 05:00",3.20155562649641,"Approved","OW485"
"2023-05-14 06:00",3.20055610534717,"Approved","OW485"
"2023-05-14 07:00",3.19955658419792,"Approved","OW485"
"2023-05-14 08:00",3.19755706304868,"Approved","OW485"
"2023-05-14 09:00",3.19655754189944,"Approved","OW485"
"2023-05-14 10:00",3.1955580207502,"Approved","OW485"
"2023-05-14 11:00",3.19455849960096,"Approved","OW485"
"2023-05-14 12:00",3.19355897845172,"Approved","OW485"
"2023-05-14 13:00",3.19355945730247,"Approved","OW485"
"2023-05-14 14:00",3.19255993615323,"Approved","OW485"
"2023-05-14 15:00",3.19156041500399,"Approved","OW485"
"2023-05-14 16:00",3.19056089385475,"Approved","OW485"
"2023-05-14 17:00",3.18956137270551,"Approved","OW485"
"2023-05-14 18:00",3.18956185155626,"Approved","OW485"
"2023-05-14 19:00",3.18856233040702,"Approved","OW485"
"2023-05-14 20:00",3.18656280925778,"Approved","OW485"
"2023-05-14 21:00",3.18756328810854,"Approved","OW485"
"2023-05-14 22:00",3.1875637669593,"Approved","OW485"
"2023-05-14 23:00",3.18656424581006,"Approved","OW485"
"2023-05-15 00:00",3.18656472466081,"Approved","OW485"
"2023-05-15 01:00",3.18556520351157,"Approved","OW485"
"2023-05-15 02:00",3.18456568236233,"Approved","OW485"
"2023-05-15 03:00",3.18356616121309,"Approved","OW485"
"2023-05-15 04:00",3.18356664006385,"Approved","OW485"
"2023-05-15 05:00",3.1835671189146,"Approved","OW485"
"2023-05-15 06:00",3.18156759776536,"Approved","OW485"
"2023-05-15 07:00",3.18056807661612,"Approved","OW485"
"2023-05-15 08:00",3.17956855546688,"Approved","OW485"
"2023-05-15 09:00",3.17856903431764,"Approved","OW485"
"2023-05-15 10:00",3.1775695131684,"Approved","OW485"
"2023-05-15 11:00",3.17656999201915,"Approved","OW485"
"2023-05-15 12:00",3.17457047086991,"Approved","OW485"
"2023-05-15 13:00",3.17457094972067,"Approved","OW485"
"2023-05-15 14:00",3.17357142857143,"Approved","OW485"
"2023-05-15 15:00",3.17357190742219,"Approved","OW485"
"2023-05-15 16:00",3.17357238627294,"Approved","OW485"
"2023-05-15 17:00",3.1725728651237,"Approved","OW485"
"2023-05-15 18:00",3.17157334397446,"Approved","OW485"
"2023-05-15 19:00",3.17057382282522,"Approved","OW485"
"2023-05-15 20:00",3.17057430167598,"Approved","OW485"
"2023-05-15 21:00",3.16957478052674,"Approved","OW485"
"2023-05-15 22:00",3.16857525937749,"Approved","OW485"
"2023-05-15 23:00",3.16857573822825,"Approved","OW485"
"2023-05-16 00:00",3.16657621707901,"Approved","OW485"
"2023-05-16 01:00",3.16657669592977,"Approved","OW485"
"2023-05-16 02:00",3.16557717478053,"Approved","OW485"
"2023-05-16 03:00",3.16457765363128,"Approved","OW485"
"2023-05-16 04:00",3.16457813248204,"Approved","OW485"
"2023-05-16 05:00",3.1635786113328,"Approved","OW485"
"2023-05-16 06:00",3.16257909018356,"Approved","OW485"
"2023-05-16 07:00",3.16257956903432,"Approved","OW485"
"2023-05-16 08:00",3.16158004788508,"Approved","OW485"
"2023-05-16 09:00",3.16158052673583,"Approved","OW485"
"2023-05-16 10:00",3.16058100558659,"Approved","OW485"
"2023-05-16 11:00",3.15958148443735,"Approved","OW485"
"2023-05-16 12:00",3.15858196328811,"Approved","OW485"
"2023-05-16 13:00",3.15758244213887,"Approved","OW485"
"2023-05-16 14:00",3.15758292098962,"Approved","OW485"
"2023-05-16 15:00",3.15658339984038,"Approved","OW485"
"2023-05-16 16:00",3.15658387869114,"Approved","OW485"
"2023-05-16 17:00",3.1555843575419,"Approved","OW485"
"2023-05-16 18:00",3.15358483639266,"Approved","OW485"
"2023-05-16 19:00",3.15358531524342,"Approved","OW485"
"2023-05-16 20:00",3.15258579409417,"Approved","OW485"
"2023-05-16 21:00",3.15158627294493,"Approved","OW485"
"2023-05-16 22:00",3.14958675179569,"Approved","OW485"
"2023-05-16 23:00",3.14858723064645,"Approved","OW485"
"2023-05-17 00:00",3.14858770949721,"Approved","OW485"
"2023-05-17 01:00",3.14858818834796,"Approved","OW485"
"2023-05-17 02:00",3.14758866719872,"Approved","OW485"
"2023-05-17 03:00",3.14658914604948,"Approved","OW485"
"2023-05-17 04:00",3.14558962490024,"Approved","OW485"
"2023-05-17 05:00",3.145590103751,"Approved","OW485"
"2023-05-17 06:00",3.14359058260176,"Approved","OW485"
"2023-05-17 07:00",3.14259106145251,"Approved","OW485"
"2023-05-17 08:00",3.14259154030327,"Approved","OW485"
"2023-05-17 09:00",3.14059201915403,"Approved","OW485"
"2023-05-17 10:00",3.14059249800479,"Approved","OW485"
"2023-05-17 11:00",3.13959297685555,"Approved","OW485"
"2023-05-17 12:00",3.1385934557063,"Approved","OW485"
"2023-05-17 13:00",3.13759393455706,"Approved","OW485"
"2023-05-17 14:00",3.13759441340782,"Approved","OW485"
"2023-05-17 15:00",3.13659489225858,"Approved","OW485"
"2023-05-17 16:00",3.13559537110934,"Approved","OW485"
"2023-05-17 17:00",3.1345958499601,"Approved","OW485"
"2023-05-17 18:00",3.13359632881085,"Approved","OW485"
"2023-05-17 19:00",3.13259680766161,"Approved","OW485"
"2023-05-17 20:00",3.13159728651237,"Approved","OW485"
"2023-05-17 21:00",3.13059776536313,"Approved","OW485"
"2023-05-17 22:00",3.12959824421389,"Approved","OW485"
"2023-05-17 23:00",3.12859872306464,"Approved","OW485"
"2023-05-18 00:00",3.1275992019154,"Approved","OW485"
"2023-05-18 01:00",3.12659968076616,"Approved","OW485"
"2023-05-18 02:00",3.12560015961692,"Approved","OW485"
"2023-05-18 03:00",3.12460063846768,"Approved","OW485"
"2023-05-18 04:00",3.12460111731844,"Approved","OW485"
"2023-05-18 05:00",3.12360159616919,"Approved","OW485"
"2023-05-18 06:00",3.12260207501995,"Approved","OW485"
"2023-05-18 07:00",3.12160255387071,"Approved","OW485"
"2023-05-18 08:00",3.12060303272147,"Approved","OW485"
"2023-05-18 09:00",3.11960351157223,"Approved","OW485"
"2023-05-18 10:00",3.11860399042298,"Approved","OW485"
"2023-05-18 11:00",3.11760446927374,"Approved","OW485"
"2023-05-18 12:00",3.1176049481245,"Approved","OW485"
"2023-05-18 13:00",3.11660542697526,"Approved","OW485"
"2023-05-18 14:00",3.11660590582602,"Approved","OW485"
"2023-05-18 15:00",3.11460638467678,"Approved","OW485"
"2023-05-18 16:00",3.11460686352753,"Approved","OW485"
"2023-05-18 17:00",3.11260734237829,"Approved","OW485"
"2023-05-18 18:00",3.11260782122905,"Approved","OW485"
"2023-05-18 19:00",3.11160830007981,"Approved","OW485"
"2023-05-18 20:00",3.11060877893057,"Approved","OW485"
"2023-05-18 21:00",3.10960925778133,"Approved","OW485"
"2023-05-18 22:00",3.10860973663208,"Approved","OW485"
"2023-05-18 23:00",3.10761021548284,"Approved","OW485"
"2023-05-19 00:00",3.1066106943336,"Approved","OW485"
"2023-05-19 01:00",3.10561117318436,"Approved","OW485"
"2023-05-19 02:00",3.10561165203512,"Approved","OW485"
"2023-05-19 03:00",3.10461213088587,"Approved","OW485"
"2023-05-19 04:00",3.10461260973663,"Approved","OW485"
"2023-05-19 05:00",3.10361308858739,"Approved","OW485"
"2023-05-19 06:00",3.10161356743815,"Approved","OW485"
"2023-05-19 07:00",3.10061404628891,"Approved","OW485"
"2023-05-19 08:00",3.09961452513966,"Approved","OW485"
"2023-05-19 09:00",3.09861500399042,"Approved","OW485"
"2023-05-19 10:00",3.09761548284118,"Approved","OW485"
"2023-05-19 11:00",3.09861596169194,"Approved","OW485"
"2023-05-19 12:00",3.0976164405427,"Approved","OW485"
"2023-05-19 13:00",3.09661691939346,"Approved","OW485"
"2023-05-19 14:00",3.09461739824421,"Approved","OW485"
"2023-05-19 15:00",3.09361787709497,"Approved","OW485"
"2023-05-19 16:00",3.09261835594573,"Approved","OW485"
"2023-05-19 17:00",3.09261883479649,"Approved","OW485"
"2023-05-19 18:00",3.09261931364725,"Approved","OW485"
"2023-05-19 19:00",3.091619792498,"Approved","OW485"
"2023-05-19 20:00",3.09162027134876,"Approved","OW485"
"2023-05-19 21:00",3.09062075019952,"Approved","OW485"
"2023-05-19 22:00",3.08862122905028,"Approved","OW485"
"2023-05-19 23:00",3.08762170790104,"Approved","OW485"
"2023-05-20 00:00",3.0866221867518,"Approved","OW485"
"2023-05-20 01:00",3.08562266560255,"Approved","OW485"
"2023-05-20 02:00",3.08562314445331,"Approved","OW485"
"2023-05-20 03:00",3.08462362330407,"Approved","OW485"
"2023-05-20 04:00",3.08362410215483,"Approved","OW485"
"2023-05-20 05:00",3.08162458100559,"Approved","OW485"
"2023-05-20 06:00",3.07962505985634,"Approved","OW485"
"2023-05-20 07:00",3.0786255387071,"Approved","OW485"
"2023-05-20 08:00",3.07762601755786,"Approved","OW485"
"2023-05-20 09:00",3.07662649640862,"Approved","OW485"
"2023-05-20 10:00",3.07562697525938,"Approved","OW485"
"2023-05-20 11:00",3.07662745411014,"Approved","OW485"
"2023-05-20 12:00",3.07562793296089,"Approved","OW485"
"2023-05-20 13:00",3.07462841181165,"Approved","OW485"
"2023-05-20 14:00",3.07162889066241,"Approved","OW485"
"2023-05-20 15:00",3.07062936951317,"Approved","OW485"
"2023-05-20 16:00",3.06962984836393,"Approved","OW485"
"2023-05-20 17:00",3.06963032721468,"Approved","OW485"
"2023-05-20 18:00",3.06963080606544,"Approved","OW485"
"2023-05-20 19:00",3.0676312849162,"Approved","OW485"
"2023-05-20 20:00",3.06763176376696,"Approved","OW485"
"2023-05-20 21:00",3.06663224261772,"Approved","OW485"
"2023-05-20 22:00",3.06563272146848,"Approved","OW485"
"2023-05-20 23:00",3.06363320031923,"Approved","OW485"
"2023-05-21 00:00",3.06363367916999,"Approved","OW485"
"2023-05-21 01:00",3.06263415802075,"Approved","OW485"
"2023-05-21 02:00",3.06063463687151,"Approved","OW485"
"2023-05-21 03:00",3.05963511572227,"Approved","OW485"
"2023-05-21 04:00",3.05963559457302,"Approved","OW485"
"2023-05-21 05:00",3.05763607342378,"Approved","OW485"
"2023-05-21 06:00",3.05763655227454,"Approved","OW485"
"2023-05-21 07:00",3.0566370311253,"Approved","OW485"
"2023-05-21 08:00",3.05563750997606,"Approved","OW485"
"2023-05-21 09:00",3.05263798882682,"Approved","OW485"
"2023-05-21 10:00",3.05163846767757,"Approved","OW485"
"2023-05-21 11:00",3.05163894652833,"Approved","OW485"
"2023-05-21 12:00",3.05163942537909,"Approved","OW485"
"2023-05-21 13:00",3.04963990422985,"Approved","OW485"
"2023-05-21 14:00",3.04764038308061,"Approved","OW485"
"2023-05-21 15:00",3.04664086193136,"Approved","OW485"
"2023-05-21 16:00",3.04564134078212,"Approved","OW485"
"2023-05-21 17:00",3.04564181963288,"Approved","OW485"
"2023-05-21 18:00",3.04464229848364,"Approved","OW485"
"2023-05-21 19:00",3.0446427773344,"Approved","OW485"
"2023-05-21 20:00",3.04364325618516,"Approved","OW485"
"2023-05-21 21:00",3.04264373503591,"Approved","OW485"
"2023-05-21 22:00",3.04164421388667,"Approved","OW485"
"2023-05-21 23:00",3.03964469273743,"Approved","OW485"
"2023-05-22 00:00",3.03864517158819,"Approved","OW485"
"2023-05-22 01:00",3.03764565043895,"Approved","OW485"
"2023-05-22 02:00",3.0366461292897,"Approved","OW485"
"2023-05-22 03:00",3.03564660814046,"Approved","OW485"
"2023-05-22 04:00",3.03464708699122,"Approved","OW485"
"2023-05-22 05:00",3.03364756584198,"Approved","OW485"
"2023-05-22 06:00",3.03264804469274,"Approved","OW485"
"2023-05-22 07:00",3.0316485235435,"Approved","OW485"
"2023-05-22 08:00",3.02964900239425,"Approved","OW485"
"2023-05-22 09:00",3.02664948124501,"Approved","OW485"
"2023-05-22 10:00",3.02564996009577,"Approved","OW485"
"2023-05-22 11:00",3.02565043894653,"Approved","OW485"
"2023-05-22 12:00",3.02465091779729,"Approved","OW485"
"2023-05-22 13:00",3.02365139664804,"Approved","OW485"
"2023-05-22 14:00",3.0216518754988,"Approved","OW485"
"2023-05-22 15:00",3.01965235434956,"Approved","OW485"
"2023-05-22 16:00",3.01865283320032,"Approved","OW485"
"2023-05-22 17:00",3.01665331205108,"Approved","OW485"
"2023-05-22 18:00",3.01565379090184,"Approved","OW485"
"2023-05-22 19:00",3.01465426975259,"Approved","OW485"
"2023-05-22 20:00",3.01365474860335,"Approved","OW485"
"2023-05-22 21:00",3.01165522745411,"Approved","OW485"
"2023-05-22 22:00",3.01065570630487,"Approved","OW485"
"2023-05-22 23:00",3.00965618515563,"Approved","OW485"
"2023-05-23 00:00",3.00865666400638,"Approved","OW485"
"2023-05-23 01:00",3.00765714285714,"Approved","OW485"
"2023-05-23 02:00",3.0066576217079,"Approved","OW485"
"2023-05-23 03:00",3.00465810055866,"Approved","OW485"
"2023-05-23 04:00",3.00365857940942,"Approved","OW485"
"2023-05-23 05:00",3.00165905826018,"Approved","OW485"
"2023-05-23 06:00",3.00065953711093,"Approved","OW485"
"2023-05-23 07:00",3.00066001596169,"Approved","OW485"
"2023-05-23 08:00",2.99966049481245,"Approved","OW485"
"2023-05-23 09:00",2.99766097366321,"Approved","OW485"
"2023-05-23 10:00",2.99666145251397,"Approved","OW485"
"2023-05-23 11:00",2.99566193136472,"Approved","OW485"
"2023-05-23 12:00",2.99366241021548,"Approved","OW485"
"2023-05-23 13:00",2.99266288906624,"Approved","OW485"
"2023-05-23 14:00",2.991663367917,"Approved","OW485"
"2023-05-23 15:00",2.99066384676776,"Approved","OW485"
"2023-05-23 16:00",2.98966432561852,"Approved","OW485"
"2023-05-23 17:00",2.98866480446927,"Approved","OW485"
"2023-05-23 18:00",2.98766528332003,"Approved","OW485"
"2023-05-23 19:00",2.98566576217079,"Approved","OW485"
"2023-05-23 20:00",2.98466624102155,"Approved","OW485"
"2023-05-23 21:00",2.98366671987231,"Approved","OW485"
"2023-05-23 22:00",2.98166719872306,"Approved","OW485"
"2023-05-23 23:00",2.98066767757382,"Approved","OW485"
"2023-05-24 00:00",2.97966815642458,"Approved","OW485"
"2023-05-24 01:00",2.97866863527534,"Approved","OW485"
"2023-05-24 02:00",2.9776691141261,"Approved","OW485"
"2023-05-24 03:00",2.97666959297686,"Approved","OW485"
"2023-05-24 04:00",2.97567007182761,"Approved","OW485"
"2023-05-24 05:00",2.97467055067837,"Approved","OW485"
"2023-05-24 06:00",2.97267102952913,"Approved","OW485"
"2023-05-24 07:00",2.97167150837989,"Approved","OW485"
"2023-05-24 08:00",2.97067198723065,"Approved","OW485"
"2023-05-24 09:00",2.9696724660814,"Approved","OW485"
"2023-05-24 10:00",2.96767294493216,"Approved","OW485"
"2023-05-24 11:00",2.96667342378292,"Approved","OW485"
"2023-05-24 12:00",2.96567390263368,"Approved","OW485"
"2023-05-24 13:00",2.96467438148444,"Approved","OW485"
"2023-05-24 14:00",2.9646748603352,"Approved","OW485"
"2023-05-24 15:00",2.96267533918595,"Approved","OW485"
"2023-05-24 16:00",2.96167581803671,"Approved","OW485"
"2023-05-24 17:00",2.96067629688747,"Approved","OW485"
"2023-05-24 18:00",2.95967677573823,"Approved","OW485"
"2023-05-24 19:00",2.95767725458899,"Approved","OW485"